| time (UTC) | temp F | wind direction | speed knots | gust knots | rain 1hr in | rain 24hr in | rain mn in | humidity % | barometer mb |
| 20260506073102 | 42 | 68 | 0.0 | 2.6 | 0.00 | 0.00 | 0.00 | 72 | 1017.4 |
| 20260506071546 | 42 | 69 | 1.7 | 4.3 | 0.00 | 0.00 | 0.00 | 73 | 1017.4 |
| 20260506061554 | 40 | 76 | 0.0 | 2.6 | 0.00 | 0.00 | 0.00 | 75 | 1017.3 |
| 20260506050124 | 36 | 76 | 0.0 | 0.0 | 0.00 | 0.00 | 0.00 | 79 | 1017.3 |
| 20260506044606 | 37 | 76 | 0.0 | 0.9 | 0.00 | 0.00 | 0.00 | 79 | 1017.3 |
| 20260506043129 | 37 | 76 | 0.0 | 0.0 | 0.00 | 0.00 | 0.00 | 78 | 1017.2 |
| 20260506041524 | 37 | 76 | 0.0 | 0.9 | 0.00 | 0.00 | 0.00 | 78 | 1017.1 |
| 20260506040106 | 38 | 76 | 0.0 | 0.0 | 0.00 | 0.00 | 0.00 | 78 | 1017.1 |
| 20260506034601 | 38 | 76 | 0.0 | 0.0 | 0.00 | 0.00 | 0.00 | 78 | 1017.1 |
| 20260506033127 | 38 | 76 | 0.0 | 0.0 | 0.00 | 0.00 | 0.00 | 78 | 1017.2 |
| 20260506031522 | 38 | 76 | 0.0 | 0.0 | 0.00 | 0.00 | 0.00 | 79 | 1017.3 |
| 20260506030057 | 38 | 76 | 0.0 | 0.9 | 0.00 | 0.00 | 0.00 | 79 | 1017.4 |
| 20260506024557 | 38 | 76 | 0.0 | 0.0 | 0.00 | 0.00 | 0.00 | 80 | 1017.4 |
| 20260506023117 | 38 | 76 | 0.0 | 0.0 | 0.00 | 0.00 | 0.00 | 79 | 1017.4 |
| 20260506021518 | 38 | 76 | 0.0 | 0.9 | 0.00 | 0.00 | 0.00 | 79 | 1017.3 |
| 20260506020132 | 38 | 76 | 0.0 | 1.7 | 0.00 | 0.00 | 0.00 | 79 | 1017.4 |
| 20260506014530 | 39 | 76 | 0.0 | 1.7 | 0.00 | 0.00 | 0.00 | 79 | 1017.5 |
| 20260506013014 | 39 | 76 | 0.0 | 0.0 | 0.00 | 0.00 | 0.00 | 80 | 1017.6 |
| 20260506011602 | 38 | 76 | 0.0 | 0.9 | 0.00 | 0.00 | 0.00 | 81 | 1017.7 |
| 20260506010121 | 38 | 76 | 0.0 | 0.9 | 0.00 | 0.00 | 0.00 | 81 | 1017.8 |
| 20260506004527 | 38 | 76 | 0.0 | 0.9 | 0.00 | 0.00 | 0.00 | 81 | 1017.8 |
| 20260506003053 | 39 | 76 | 0.0 | 0.9 | 0.00 | 0.00 | 0.00 | 81 | 1017.8 |
| 20260506001553 | 39 | 76 | 0.0 | 0.9 | 0.00 | 0.00 | 0.00 | 80 | 1017.8 |
| 20260506000123 | 39 | 76 | 0.0 | 1.7 | 0.00 | 0.00 | 0.00 | 80 | 1017.6 |
| 20260505234502 | 39 | 76 | 0.0 | 0.9 | 0.00 | 0.00 | 0.00 | 79 | 1017.8 |
| 20260505233006 | 39 | 76 | 0.0 | 0.9 | 0.00 | 0.00 | 0.00 | 79 | 1017.8 |
| 20260505231552 | 40 | 76 | 0.0 | 1.7 | 0.00 | 0.00 | 0.00 | 79 | 1017.8 |
| 20260505230101 | 40 | 102 | 0.0 | 1.7 | 0.00 | 0.00 | 0.00 | 79 | 1017.9 |
| 20260505224553 | 40 | 98 | 0.0 | 0.9 | 0.00 | 0.00 | 0.00 | 78 | 1018.0 |
| 20260505223118 | 40 | 79 | 0.0 | 2.6 | 0.00 | 0.00 | 0.00 | 78 | 1017.9 |
| 20260505221504 | 41 | 85 | 0.0 | 1.7 | 0.00 | 0.00 | 0.00 | 77 | 1018.2 |
| 20260505220125 | 41 | 75 | 0.0 | 2.6 | 0.00 | 0.00 | 0.00 | 77 | 1018.1 |
| 20260505214546 | 41 | 67 | 0.0 | 2.6 | 0.00 | 0.00 | 0.00 | 76 | 1018.0 |
| 20260505213101 | 41 | 64 | 0.9 | 5.2 | 0.00 | 0.00 | 0.00 | 75 | 1017.9 |
| 20260505211541 | 41 | 87 | 0.9 | 4.3 | 0.00 | 0.00 | 0.00 | 75 | 1017.9 |
| 20260505204600 | 42 | 61 | 1.7 | 5.2 | 0.00 | 0.00 | 0.00 | 74 | 1017.9 |
| 20260505203130 | 42 | 105 | 0.9 | 5.2 | 0.00 | 0.00 | 0.00 | 74 | 1017.8 |
| 20260505201534 | 42 | 54 | 0.9 | 7.0 | 0.00 | 0.00 | 0.00 | 74 | 1017.9 |
| 20260505200018 | 42 | 66 | 0.0 | 6.1 | 0.00 | 0.00 | 0.00 | 73 | 1017.8 |
| 20260505194557 | 42 | 53 | 1.7 | 7.0 | 0.00 | 0.00 | 0.00 | 73 | 1017.7 |
| 20260505193125 | 42 | 157 | 2.6 | 7.8 | 0.00 | 0.00 | 0.00 | 72 | 1017.7 |
| 20260505191512 | 43 | 83 | 2.6 | 7.8 | 0.00 | 0.00 | 0.00 | 71 | 1017.6 |
| 20260505190007 | 43 | 71 | 0.9 | 8.7 | 0.00 | 0.00 | 0.00 | 70 | 1017.6 |
| 20260505184544 | 43 | 63 | 4.3 | 10.4 | 0.00 | 0.00 | 0.00 | 69 | 1017.5 |
| 20260505183108 | 43 | 67 | 4.3 | 11.3 | 0.00 | 0.00 | 0.00 | 69 | 1017.5 |
| 20260505181604 | 43 | 333 | 2.6 | 10.4 | 0.00 | 0.00 | 0.00 | 69 | 1017.3 |
| 20260505180129 | 44 | 72 | 2.6 | 8.7 | 0.00 | 0.00 | 0.00 | 68 | 1017.5 |
| 20260505174528 | 44 | 95 | 2.6 | 11.3 | 0.00 | 0.00 | 0.00 | 68 | 1017.3 |
| 20260505173018 | 44 | 57 | 1.7 | 10.4 | 0.00 | 0.00 | 0.00 | 70 | 1017.4 |
| 20260505171553 | 44 | 73 | 3.5 | 11.3 | 0.00 | 0.00 | 0.00 | 70 | 1017.4 |
| 20260505170114 | 45 | 80 | 3.5 | 9.6 | 0.00 | 0.00 | 0.00 | 72 | 1017.3 |
| 20260505164502 | 45 | 64 | 3.5 | 7.8 | 0.00 | 0.00 | 0.00 | 70 | 1017.3 |
| 20260505163009 | 45 | 76 | 3.5 | 11.3 | 0.00 | 0.00 | 0.00 | 72 | 1017.2 |
| 20260505161536 | 45 | 73 | 1.7 | 11.3 | 0.00 | 0.00 | 0.00 | 71 | 1017.2 |
| 20260505153122 | 45 | 44 | 2.6 | 12.2 | 0.00 | 0.00 | 0.00 | 73 | 1017.2 |
| 20260505151531 | 46 | 30 | 4.3 | 11.3 | 0.00 | 0.00 | 0.00 | 74 | 1017.1 |
| 20260505140135 | 45 | 92 | 5.2 | 11.3 | 0.00 | 0.00 | 0.00 | 78 | 1016.9 |
| 20260505130133 | 45 | 70 | 3.5 | 11.3 | 0.00 | 0.00 | 0.00 | 78 | 1016.9 |
| 20260505123058 | 45 | 55 | 5.2 | 14.8 | 0.00 | 0.00 | 0.00 | 76 | 1016.7 |
| 20260505121558 | 46 | 74 | 7.0 | 13.0 | 0.00 | 0.00 | 0.00 | 76 | 1016.6 |
| 20260505120112 | 46 | 93 | 8.7 | 19.1 | 0.00 | 0.00 | 0.00 | 75 | 1016.5 |
| 20260505114501 | 46 | 61 | 7.8 | 18.2 | 0.00 | 0.00 | 0.00 | 77 | 1016.3 |
| 20260505113003 | 48 | 51 | 7.0 | 14.8 | 0.00 | 0.00 | 0.00 | 77 | 1016.2 |
| 20260505111531 | 49 | 76 | 9.6 | 16.5 | 0.00 | 0.00 | 0.00 | 76 | 1016.0 |
| 20260505101603 | 49 | 27 | 1.7 | 8.7 | 0.00 | 0.00 | 0.00 | 67 | 1015.7 |
| 20260505100124 | 48 | 46 | 2.6 | 6.1 | 0.00 | 0.00 | 0.00 | 66 | 1015.7 |
| 20260505094532 | 48 | 86 | 2.6 | 9.6 | 0.00 | 0.00 | 0.00 | 68 | 1015.6 |
| 20260505093005 | 48 | 9 | 3.5 | 7.0 | 0.00 | 0.00 | 0.00 | 68 | 1015.5 |
| 20260505091537 | 47 | 350 | 3.5 | 7.0 | 0.00 | 0.00 | 0.00 | 68 | 1015.4 |
| 20260505090101 | 47 | 30 | 2.6 | 7.0 | 0.00 | 0.00 | 0.00 | 69 | 1015.3 |
| 20260505084603 | 47 | 322 | 2.6 | 9.6 | 0.00 | 0.00 | 0.00 | 70 | 1015.3 |
| 20260505083014 | 48 | 355 | 3.5 | 7.0 | 0.00 | 0.00 | 0.00 | 70 | 1015.3 |
| 20260505081533 | 47 | 10 | 2.6 | 7.0 | 0.00 | 0.00 | 0.00 | 74 | 1015.1 |
| 20260505074543 | 46 | 336 | 1.7 | 7.0 | 0.00 | 0.00 | 0.00 | 80 | 1014.9 |